CW2732 Weather Reports


time (UTC)temp
C
wind
direction
speed
KPH
gust
KPH
rain 1hr
cm
rain 24hr
cm
rain mn
cm
humidity
%
barometer
mb
20260504081340 17 151 0.0 4.8 0.00 1.40 0.28 92 1013.8
20260504080339 17 163 0.0 4.8 0.00 1.40 0.28 92 1013.8
20260504070401 17 27 0.0 0.0 0.20 1.40 0.28 92 1013.5
20260504050341 17 279 0.0 0.0 0.10 0.89 0.18 91 1013.0
20260504045355 17 360 0.0 0.0 0.10 0.89 0.18 91 1013.1
20260504044345 17 355 0.0 0.0 0.10 0.89 0.18 91 1013.0
20260504043400 17 360 0.0 0.0 0.00 0.79 0.15 91 1013.0
20260504042330 17 17 0.0 4.8 0.00 0.79 0.15 91 1013.0
20260504041330 17 19 1.6 4.8 0.00 0.79 0.15 91 1013.0
20260504040405 17 24 0.0 3.2 0.00 0.79 0.15 91 1013.1
20260504035337 17 360 1.6 3.2 0.00 0.79 0.15 91 1013.1
20260504034344 17 346 0.0 3.2 0.00 0.79 0.15 91 1013.1
20260504033344 17 360 0.0 3.2 0.00 0.79 0.15 91 1013.3
20260504032336 17 338 0.0 1.6 0.10 0.79 0.15 91 1013.4
20260504031335 17 360 0.0 3.2 0.41 0.79 0.15 91 1013.4
20260504030349 17 22 1.6 8.0 0.51 0.79 0.15 91 1013.5
20260504025331 17 10 0.0 6.4 0.51 0.79 0.15 91 1013.7
20260504024331 16 360 0.0 6.4 0.61 0.79 0.15 91 1013.7
20260504023349 17 38 1.6 4.8 0.71 0.79 0.15 91 1013.8
20260504022338 17 15 0.0 4.8 0.71 0.71 0.15 90 1013.8
20260504021338 17 47 0.0 4.8 0.30 0.30 0.05 90 1013.7
20260504020413 17 41 0.0 1.6 0.30 0.30 0.05 90 1013.7
20260504015334 17 350 0.0 0.0 0.30 0.30 0.05 90 1013.8
20260504014353 17 304 0.0 0.0 0.20 0.20 0.05 90 1013.9
20260504013329 17 76 0.0 0.0 0.10 0.10 0.03 89 1013.9
20260504012348 17 26 0.0 0.0 0.00 0.00 0.00 88 1013.9
20260504011338 17 350 0.0 0.0 0.00 0.00 0.00 88 1014.0
20260504010328 17 63 0.0 0.0 0.00 0.00 0.00 87 1014.0
20260504005349 17 71 0.0 3.2 0.00 0.00 0.00 86 1014.0
20260504004334 18 74 3.2 6.4 0.00 0.00 0.00 85 1014.1
20260504003353 18 52 1.6 6.4 0.00 0.00 0.00 84 1014.1
20260504002343 18 91 3.2 8.0 0.00 0.00 0.00 83 1014.0
20260504001339 18 18 3.2 6.4 0.00 0.00 0.00 83 1014.0
20260504000355 18 72 0.0 6.4 0.00 0.00 0.00 83 1014.0
20260503235340 18 74 1.6 3.2 0.00 0.00 0.00 83 1014.1
20260503234359 18 33 3.2 4.8 0.00 0.00 0.00 83 1014.2
20260503233358 18 114 1.6 8.0 0.00 0.00 0.00 84 1014.3
20260503232332 18 57 4.8 8.0 0.00 0.00 0.00 84 1014.3
20260503231351 18 82 3.2 8.0 0.00 0.00 0.00 85 1014.4
20260503230340 18 25 1.6 4.8 0.00 0.00 0.00 85 1014.4
20260503225334 18 41 1.6 6.4 0.00 0.00 0.00 85 1014.4
20260503224349 18 10 3.2 6.4 0.00 0.00 0.00 85 1014.4
20260503223334 18 44 4.8 8.0 0.00 0.00 0.00 86 1014.5
20260503222334 18 69 3.2 9.7 0.00 0.00 0.00 86 1014.5
20260503221343 18 49 1.6 6.4 0.00 0.00 0.00 86 1014.7
20260503220342 18 75 1.6 8.0 0.00 0.00 0.00 87 1014.7
20260503215332 18 23 3.2 6.4 0.00 0.00 0.00 87 1014.7
20260503214340 18 76 3.2 6.4 0.00 0.00 0.00 87 1014.8
20260503213339 18 95 3.2 6.4 0.00 0.00 0.00 87 1015.0
20260503212338 18 104 4.8 6.4 0.00 0.00 0.00 87 1015.1
20260503211353 18 83 3.2 11.3 0.00 0.00 0.00 87 1015.0
20260503210339 18 31 1.6 6.4 0.00 0.00 0.00 87 1015.0
20260503205332 18 111 1.6 6.4 0.00 0.00 0.00 87 1015.0
20260503204351 18 79 6.4 12.9 0.00 0.00 0.00 87 1014.9
20260503203340 18 77 4.8 11.3 0.00 0.00 0.00 87 1014.9
20260503202341 17 98 4.8 11.3 0.00 0.00 0.00 87 1014.9
20260503201332 17 109 6.4 12.9 0.00 0.00 0.00 87 1014.7
20260503200331 17 57 6.4 11.3 0.00 0.00 0.00 87 1014.4
20260503195343 18 74 6.4 12.9 0.00 0.00 0.00 86 1014.3
20260503194331 18 91 6.4 16.1 0.00 0.00 0.00 86 1014.0
20260503193330 18 79 4.8 14.5 0.00 0.00 0.00 86 1013.7
20260503192349 18 84 4.8 14.5 0.00 0.00 0.00 85 1013.5
20260503191338 18 100 8.0 14.5 0.00 0.00 0.00 85 1013.3
20260503190329 18 101 8.0 17.7 0.00 0.00 0.00 85 1013.3
20260503185340 18 39 11.3 19.3 0.00 0.00 0.00 84 1013.2
20260503184340 18 67 8.0 14.5 0.00 0.00 0.00 84 1013.3
20260503183339 18 52 8.0 14.5 0.00 0.00 0.00 84 1013.3
20260503182330 18 78 8.0 17.7 0.00 0.00 0.00 83 1013.2
20260503181342 18 82 11.3 20.9 0.00 0.00 0.00 83 1013.1
20260503180332 18 49 9.7 20.9 0.00 0.00 0.00 81 1013.0
20260503175414 18 66 11.3 17.7 0.00 0.00 0.00 81 1012.9
20260503174340 18 67 9.7 29.0 0.00 0.00 0.00 80 1012.9
20260503173400 19 61 8.0 29.0 0.00 0.00 0.00 79 1013.0
20260503172337 19 30 8.0 29.0 0.00 0.00 0.00 78 1012.7
20260503171344 19 90 9.7 29.0 0.00 0.00 0.00 79 1012.7
20260503170340 20 49 12.9 29.0 0.00 0.00 0.00 77 1012.7
20260503150343 22 88 11.3 20.9 0.00 0.00 0.00 63 1012.8
20260503131333 26 41 6.4 20.9 0.00 0.00 0.00 55 1013.5
20260503130353 25 175 4.8 16.1 0.00 0.00 0.00 56 1013.7
20260503110335 21 21 3.2 16.1 0.00 0.00 0.00 69 1015.1